| time (UTC) | temp F | wind direction | speed knots | gust knots | rain 1hr in | rain 24hr in | rain mn in | humidity % | barometer mb |
| 20260506175523 | 34 | 112 | 1.7 | 0.0 | 0.00 | 0.00 | 0.00 | 54 | 1007.3 |
| 20260506174522 | 34 | 135 | 1.7 | 0.0 | 0.00 | 0.00 | 0.00 | 54 | 1007.3 |
| 20260506173520 | 35 | 90 | 3.5 | 0.0 | 0.00 | 0.00 | 0.00 | 53 | 1007.2 |
| 20260506170516 | 36 | 67 | 2.6 | 0.0 | 0.00 | 0.00 | 0.00 | 53 | 1007.1 |
| 20260506165515 | 36 | 135 | 0.0 | 0.0 | 0.00 | 0.00 | 0.00 | 53 | 1007.0 |
| 20260506164514 | 36 | 157 | 3.5 | 0.0 | 0.00 | 0.00 | 0.00 | 53 | 1007.0 |
| 20260506163512 | 37 | 292 | 8.7 | 0.0 | 0.00 | 0.00 | 0.00 | 52 | 1007.1 |
| 20260506162511 | 37 | 180 | 3.5 | 0.0 | 0.00 | 0.00 | 0.00 | 52 | 1007.0 |
| 20260506161509 | 37 | 180 | 0.0 | 0.0 | 0.00 | 0.00 | 0.00 | 52 | 1007.2 |
| 20260506160449 | 39 | 157 | 0.0 | 0.0 | 0.00 | 0.00 | 0.00 | 53 | 1007.3 |
| 20260506155507 | 38 | 135 | 4.3 | 0.0 | 0.00 | 0.00 | 0.00 | 52 | 1007.2 |
| 20260506154505 | 38 | 270 | 2.6 | 0.0 | 0.00 | 0.00 | 0.00 | 52 | 1007.1 |
| 20260506153504 | 39 | 157 | 0.0 | 0.0 | 0.00 | 0.00 | 0.00 | 53 | 1007.3 |
| 20260506152753 | 38 | 247 | 0.0 | 0.0 | 0.00 | 0.00 | 0.00 | 50 | 1007.0 |
| 20260506151501 | 38 | 202 | 3.5 | 0.0 | 0.00 | 0.00 | 0.00 | 50 | 1007.1 |
| 20260506150500 | 38 | 247 | 0.0 | 0.0 | 0.00 | 0.00 | 0.00 | 50 | 1007.0 |
| 20260506145459 | 40 | 247 | 5.2 | 0.0 | 0.00 | 0.00 | 0.00 | 47 | 1007.0 |
| 20260506144457 | 40 | 247 | 4.3 | 0.0 | 0.00 | 0.00 | 0.00 | 47 | 1007.2 |
| 20260506143456 | 41 | 247 | 0.0 | 0.0 | 0.00 | 0.00 | 0.00 | 46 | 1007.2 |
| 20260506142454 | 41 | 270 | 2.6 | 0.0 | 0.00 | 0.00 | 0.00 | 46 | 1007.2 |
| 20260506141453 | 41 | 270 | 3.5 | 0.0 | 0.00 | 0.00 | 0.00 | 45 | 1007.3 |
| 20260506135450 | 41 | 247 | 0.9 | 0.0 | 0.00 | 0.00 | 0.00 | 41 | 1007.1 |
| 20260506134449 | 41 | 292 | 4.3 | 0.0 | 0.00 | 0.00 | 0.00 | 41 | 1007.2 |
| 20260506133447 | 43 | 270 | 0.0 | 0.0 | 0.00 | 0.00 | 0.00 | 41 | 1007.0 |
| 20260506132446 | 46 | 247 | 5.2 | 0.0 | 0.00 | 0.00 | 0.00 | 40 | 1007.2 |
| 20260506131444 | 47 | 157 | 0.0 | 0.0 | 0.00 | 0.00 | 0.00 | 44 | 1007.1 |
| 20260506130443 | 46 | 225 | 2.6 | 0.0 | 0.00 | 0.00 | 0.00 | 45 | 1007.2 |
| 20260506125441 | 43 | 135 | 3.5 | 0.0 | 0.00 | 0.00 | 0.00 | 46 | 1007.1 |
| 20260506123439 | 40 | 292 | 3.5 | 0.0 | 0.00 | 0.00 | 0.00 | 44 | 1007.1 |
| 20260506122438 | 42 | 270 | 4.3 | 0.0 | 0.00 | 0.00 | 0.00 | 42 | 1007.2 |
| 20260506121436 | 46 | 157 | 0.9 | 0.0 | 0.00 | 0.00 | 0.00 | 42 | 1007.2 |
| 20260506120435 | 45 | 180 | 2.6 | 0.0 | 0.00 | 0.00 | 0.00 | 43 | 1007.1 |
| 20260506114432 | 44 | 270 | 0.0 | 0.0 | 0.00 | 0.00 | 0.00 | 44 | 1007.1 |
| 20260506113431 | 44 | 157 | 3.5 | 0.0 | 0.00 | 0.00 | 0.00 | 44 | 1007.1 |
| 20260506112429 | 45 | 292 | 6.1 | 0.0 | 0.00 | 0.00 | 0.00 | 42 | 1007.1 |
| 20260506111428 | 44 | 157 | 5.2 | 0.0 | 0.00 | 0.00 | 0.00 | 45 | 1007.1 |
| 20260506110426 | 44 | 112 | 6.1 | 0.0 | 0.00 | 0.00 | 0.00 | 45 | 1007.2 |
| 20260506105425 | 45 | 157 | 4.3 | 0.0 | 0.00 | 0.00 | 0.00 | 43 | 1007.2 |
| 20260506104424 | 46 | 157 | 0.9 | 0.0 | 0.00 | 0.00 | 0.00 | 45 | 1007.0 |
| 20260506102421 | 45 | 157 | 0.0 | 0.0 | 0.00 | 0.00 | 0.00 | 46 | 1006.9 |
| 20260506101420 | 44 | 157 | 5.2 | 0.0 | 0.00 | 0.00 | 0.00 | 48 | 1007.0 |
| 20260506100418 | 42 | 157 | 4.3 | 0.0 | 0.00 | 0.00 | 0.00 | 49 | 1007.0 |
| 20260506095417 | 40 | 247 | 0.0 | 0.0 | 0.00 | 0.00 | 0.00 | 48 | 1006.8 |
| 20260506094415 | 40 | 157 | 1.7 | 0.0 | 0.00 | 0.00 | 0.00 | 51 | 1007.1 |
| 20260506093414 | 39 | 157 | 0.9 | 0.0 | 0.00 | 0.00 | 0.00 | 54 | 1007.0 |
| 20260506091802 | 33 | 270 | 0.0 | 0.0 | 0.00 | 0.00 | 0.00 | 54 | 1007.0 |
| 20260506091411 | 35 | 180 | 4.3 | 0.0 | 0.00 | 0.00 | 0.00 | 56 | 1006.9 |
| 20260506090410 | 33 | 270 | 0.0 | 0.0 | 0.00 | 0.00 | 0.00 | 54 | 1007.0 |
| 20260506090302 | 35 | 270 | 3.5 | 0.0 | 0.00 | 0.00 | 0.00 | 56 | 1007.0 |
| 20260506084407 | 34 | 292 | 0.0 | 0.0 | 0.00 | 0.00 | 0.00 | 56 | 1007.0 |
| 20260506083405 | 35 | 270 | 3.5 | 0.0 | 0.00 | 0.00 | 0.00 | 56 | 1007.0 |
| 20260506082404 | 35 | 270 | 0.0 | 0.0 | 0.00 | 0.00 | 0.00 | 58 | 1006.9 |
| 20260506080402 | 33 | 270 | 3.5 | 0.0 | 0.00 | 0.00 | 0.00 | 58 | 1006.8 |
| 20260506073357 | 31 | 202 | 1.7 | 0.0 | 0.00 | 0.00 | 0.00 | 62 | 1006.7 |
| 20260506072357 | 30 | 180 | 0.0 | 0.0 | 0.00 | 0.00 | 0.00 | 64 | 1006.7 |
| 20260506070353 | 28 | 247 | 0.0 | 0.0 | 0.00 | 0.00 | 0.00 | 65 | 1006.6 |
| 20260506062347 | 27 | 247 | 2.6 | 0.0 | 0.00 | 0.00 | 0.00 | 67 | 1006.5 |
| 20260506061346 | 27 | 247 | 1.7 | 0.0 | 0.00 | 0.00 | 0.00 | 67 | 1006.6 |
| 20260506060344 | 26 | 315 | 4.3 | 0.0 | 0.00 | 0.00 | 0.00 | 68 | 1006.6 |
| 20260506051339 | 22 | 315 | 1.7 | 0.0 | 0.00 | 0.00 | 0.00 | 72 | 1007.0 |
| 20260506050336 | 21 | 315 | 3.5 | 0.0 | 0.00 | 0.00 | 0.00 | 73 | 1006.8 |
| 20260506041329 | 21 | 315 | 0.0 | 0.0 | 0.00 | 0.00 | 0.00 | 72 | 1007.0 |
| 20260506035326 | 21 | 315 | 1.7 | 0.0 | 0.00 | 0.00 | 0.00 | 72 | 1006.8 |
| 20260506033324 | 21 | 315 | 1.7 | 0.0 | 0.00 | 0.00 | 0.00 | 72 | 1006.8 |
| 20260506032323 | 21 | 225 | 0.0 | 0.0 | 0.00 | 0.00 | 0.00 | 73 | 1006.6 |
| 20260506030320 | 21 | 225 | 0.0 | 0.0 | 0.00 | 0.00 | 0.00 | 72 | 1006.5 |
| 20260506024317 | 21 | 225 | 0.0 | 0.0 | 0.00 | 0.00 | 0.00 | 73 | 1006.7 |
| 20260506023316 | 21 | 225 | 0.0 | 0.0 | 0.00 | 0.00 | 0.00 | 73 | 1006.7 |
| 20260506022314 | 21 | 225 | 0.0 | 0.0 | 0.00 | 0.00 | 0.00 | 73 | 1006.8 |
| 20260506021314 | 21 | 225 | 0.0 | 0.0 | 0.00 | 0.00 | 0.00 | 72 | 1006.7 |
| 20260506012308 | 22 | 225 | 0.0 | 0.0 | 0.00 | 0.00 | 0.00 | 72 | 1006.5 |
| 20260506011305 | 22 | 225 | 0.0 | 0.0 | 0.00 | 0.00 | 0.00 | 71 | 1006.3 |
| 20260506010303 | 22 | 225 | 0.0 | 0.0 | 0.00 | 0.00 | 0.00 | 71 | 1006.4 |
| 20260506003300 | 22 | 225 | 0.0 | 0.0 | 0.00 | 0.00 | 0.00 | 71 | 1006.0 |
| 20260506000255 | 23 | 225 | 0.0 | 0.0 | 0.00 | 0.00 | 0.00 | 70 | 1006.0 |
| 20260505235410 | 23 | 225 | 0.0 | 0.0 | 0.00 | 0.00 | 0.00 | 69 | 1006.1 |
| 20260505235253 | 23 | 225 | 0.0 | 0.0 | 0.00 | 0.00 | 0.00 | 70 | 1006.2 |
| 20260505234252 | 23 | 225 | 0.0 | 0.0 | 0.00 | 0.00 | 0.00 | 69 | 1006.1 |
| 20260505232250 | 24 | 225 | 0.0 | 0.0 | 0.00 | 0.00 | 0.00 | 70 | 1006.0 |
| 20260505231248 | 24 | 225 | 0.0 | 0.0 | 0.00 | 0.00 | 0.00 | 70 | 1006.0 |
| 20260505222241 | 25 | 225 | 0.0 | 0.0 | 0.00 | 0.00 | 0.00 | 70 | 1006.0 |
| 20260505215237 | 25 | 225 | 0.0 | 0.0 | 0.00 | 0.00 | 0.00 | 71 | 1006.1 |
| 20260505214235 | 25 | 225 | 0.0 | 0.0 | 0.00 | 0.00 | 0.00 | 71 | 1006.1 |
| 20260505212233 | 25 | 225 | 0.0 | 0.0 | 0.00 | 0.00 | 0.00 | 70 | 1006.1 |
| 20260505211232 | 25 | 225 | 0.0 | 0.0 | 0.00 | 0.00 | 0.00 | 70 | 1006.1 |
| 20260505210230 | 24 | 225 | 0.0 | 0.0 | 0.00 | 0.00 | 0.00 | 70 | 1006.0 |
| 20260505205229 | 25 | 225 | 0.0 | 0.0 | 0.00 | 0.00 | 0.00 | 69 | 1006.2 |
| 20260505204227 | 25 | 225 | 0.0 | 0.0 | 0.00 | 0.00 | 0.00 | 68 | 1006.1 |
| 20260505203226 | 25 | 225 | 0.0 | 0.0 | 0.00 | 0.00 | 0.00 | 67 | 1005.9 |
| 20260505201223 | 25 | 225 | 0.9 | 0.0 | 0.00 | 0.00 | 0.00 | 66 | 1005.9 |
| 20260505200222 | 26 | 225 | 0.0 | 0.0 | 0.00 | 0.00 | 0.00 | 65 | 1005.9 |
| 20260505195220 | 27 | 225 | 0.0 | 0.0 | 0.00 | 0.00 | 0.00 | 64 | 1005.9 |
| 20260505194219 | 27 | 225 | 0.0 | 0.0 | 0.00 | 0.00 | 0.00 | 63 | 1005.7 |
| 20260505193217 | 27 | 225 | 0.0 | 0.0 | 0.00 | 0.00 | 0.00 | 63 | 1005.6 |
| 20260505190214 | 28 | 225 | 2.6 | 0.0 | 0.00 | 0.00 | 0.00 | 61 | 1005.6 |
| 20260505185212 | 28 | 225 | 0.9 | 0.0 | 0.00 | 0.00 | 0.00 | 61 | 1005.5 |
| 20260505184211 | 28 | 157 | 2.6 | 0.0 | 0.00 | 0.00 | 0.00 | 60 | 1005.6 |
| 20260505183209 | 28 | 157 | 2.6 | 0.0 | 0.00 | 0.00 | 0.00 | 60 | 1005.4 |
| 20260505182208 | 29 | 292 | 0.9 | 0.0 | 0.00 | 0.00 | 0.00 | 59 | 1005.3 |
| 20260505180205 | 29 | 247 | 0.0 | 0.0 | 0.00 | 0.00 | 0.00 | 58 | 1005.2 |